Location: State Line Observation Field
(36.5320°N, 77.5360°W)
Time: 16:25:16
(UTC-05:00)

LightSail 2 - Pass Details

Date: 15 November 2019
Orbit: 696 x 730 km, 24.0° (Epoch: 06 December)

Event Time Altitude Azimuth Distance (km) Brightness Sun altitude
Exits shadow 04:50:00 19° 200° (SSW) 1,702 6.9 -23.6°
Maximum altitude 04:51:02 20° 184° (S) 1,653 7.0 -23.4°
Drops below altitude 10° 04:54:44 10° 139° (SE) 2,212 8.3 -22.7°
Sets 04:57:47 0° 122° (ESE) 3,134 9.6 -22.1°
